Regional Weather Roundup
Issued by NWS

Home | Current Version | Previous Version | Text Only | Print | Product List | Glossary On
Versions: 1 2 3 4 5 6 7 8 9 10 11 12 13 14 15 16 17 18 19 20 21 22 23 24 25 26 27 28
000
ASUS45 KBOI 251110
RWRID

IDAHO REGIONAL WEATHER ROUNDUP
NATIONAL WEATHER SERVICE BOISE ID
500 AM MDT WED MAY 25 2016

NOTE: "FAIR" INDICATES FEW OR NO CLOUDS BELOW 12000 FEET
WITH NO SIGNIFICANT WEATHER AND/OR OBSTRUCTIONS TO VISIBILITY

IDZ012-014-251200-
SOUTHWEST IDAHO


CITY           SKY/WX    TMP DP  RH WIND       PRES   REMARKS
BOISE          MOCLDY    53  41  63 NW6       29.94R
CALDWELL       MOCLDY    51  43  74 W6        29.95R
MOUNTAIN HOME  CLOUDY    56  41  58 NW10      29.93R
$$

IDZ016-017-251200-
SOUTHCENTRAL IDAHO


CITY           SKY/WX    TMP DP  RH WIND       PRES   REMARKS
BURLEY         CLOUDY    49  40  71 SW7       29.94R
JEROME         MOCLDY    50  41  71 SW6       29.95R
TWIN FALLS     CLOUDY    50  39  66 S13       29.95R
$$

IDZ019>023-251200-
SOUTHEAST IDAHO


CITY           SKY/WX    TMP DP  RH WIND       PRES   REMARKS
IDAHO FALLS    LGT RAIN  46  44  93 CALM      29.97S FOG
POCATELLO      CLOUDY    46  43  89 SW3       29.97R
REXBURG        CLOUDY    45  41  86 NE6       29.97S
$$

IDZ006-010-011-018-031-032-251200-
CENTRAL IDAHO MOUNTAINS


CITY           SKY/WX    TMP DP  RH WIND       PRES   REMARKS
MCCALL         CLEAR     35  32  88 CALM      29.96S
HAILEY         MOCLDY    43  37  81 NE3       29.98R
STANLEY          N/A     39  32  76 CALM      30.00S
SALMON         CLOUDY    45  37  76 CALM      29.96S
CHALLIS        CLOUDY    41  39  93 SE3       29.96S
$$

IDZ002-004-006-007-026-251200-
NORTHERN IDAHO


CITY           SKY/WX    TMP DP  RH WIND       PRES   REMARKS
LEWISTON       PTCLDY    49  45  86 SE3       29.96S
LOWELL           N/A     48  45  89 CALM      30.02R
COEUR D`ALENE  MOCLDY    45  41  87 CALM      29.94S
MULLAN PASS    FOG       38  38 100 VRB5      29.99S VSB 1/4 WCI  34
$$




USA.gov is the U.S. government's official web portal to all federal, state and local government web resources and services.